Time,TemperatureF,DewpointF,PressureIn,WindDirection,WindDirectionDegrees,WindSpeedMPH,WindSpeedGustMPH,Humidity,HourlyPrecipIn,Conditions,Clouds,dailyrainin,SoftwareType,DateUTC
2013-03-12 00:02:00,51.0,50.0,29.88,NW,304,0.0,-999.0,96,-99.99,,,-99.99,,2013-03-12 04:02:00,
2013-03-12 00:13:00,51.0,50.0,29.88,NW,304,0.0,-999.0,96,-99.99,,,-99.99,,2013-03-12 04:13:00,
2013-03-12 00:22:00,51.0,50.0,29.88,NW,307,2.0,-999.0,95,-99.99,,,-99.99,,2013-03-12 04:22:00,
2013-03-12 00:32:00,51.0,50.0,29.88,NNW,329,1.0,-999.0,96,-99.99,,,-99.99,,2013-03-12 04:32:00,
2013-03-12 00:43:00,51.0,50.0,29.88,NNW,329,1.0,-999.0,96,-99.99,,,-99.99,,2013-03-12 04:43:00,
2013-03-12 00:52:00,51.0,50.0,29.86,NW,317,0.0,-999.0,96,-99.99,,,-99.99,,2013-03-12 04:52:00,
2013-03-12 01:02:00,51.0,50.0,29.85,NW,317,0.0,-999.0,95,-99.99,,,-99.99,,2013-03-12 05:02:00,
2013-03-12 01:12:00,51.0,50.0,29.85,NW,317,0.0,-999.0,95,-99.99,,,-99.99,,2013-03-12 05:12:00,
2013-03-12 01:22:00,51.0,50.0,29.84,NW,317,0.0,-999.0,96,-99.99,,,-99.99,,2013-03-12 05:22:00,
2013-03-12 01:32:00,51.0,50.0,29.85,NW,317,0.0,-999.0,96,-99.99,,,-99.99,,2013-03-12 05:32:00,
2013-03-12 01:42:00,51.0,50.0,29.85,NW,317,0.0,-999.0,96,-99.99,,,-99.99,,2013-03-12 05:42:00,
2013-03-12 01:52:00,51.0,50.0,29.84,NW,317,0.0,-999.0,96,-99.99,,,-99.99,,2013-03-12 05:52:00,
2013-03-12 02:02:00,51.0,50.0,29.84,NW,317,0.0,-999.0,96,-99.99,,,-99.99,,2013-03-12 06:02:00,
2013-03-12 02:12:00,51.0,50.0,29.84,NW,317,0.0,-999.0,96,-99.99,,,-99.99,,2013-03-12 06:12:00,
2013-03-12 02:22:00,51.0,50.0,29.83,NW,317,0.0,-999.0,96,-99.99,,,-99.99,,2013-03-12 06:22:00,
2013-03-12 02:32:00,51.0,50.0,29.83,NW,317,0.0,-999.0,96,-99.99,,,-99.99,,2013-03-12 06:32:00,
2013-03-12 02:42:00,51.0,50.0,29.83,NW,317,0.0,-999.0,96,-99.99,,,-99.99,,2013-03-12 06:42:00,
2013-03-12 02:52:00,51.0,50.0,29.82,NW,317,0.0,-999.0,96,-99.99,,,-99.99,,2013-03-12 06:52:00,
2013-03-12 03:02:00,51.0,50.0,29.80,NW,317,0.0,-999.0,96,-99.99,,,-99.99,,2013-03-12 07:02:00,
2013-03-12 03:12:00,51.0,50.0,29.80,NW,317,0.0,-999.0,96,-99.99,,,-99.99,,2013-03-12 07:12:00,
2013-03-12 03:22:00,51.0,50.0,29.79,NW,317,0.0,-999.0,96,-99.99,,,-99.99,,2013-03-12 07:22:00,
2013-03-12 03:32:00,51.0,50.0,29.78,NW,317,0.0,-999.0,97,-99.99,,,-99.99,,2013-03-12 07:32:00,
2013-03-12 03:42:00,51.0,50.0,29.78,NW,317,0.0,-999.0,97,-99.99,,,-99.99,,2013-03-12 07:42:00,
2013-03-12 03:52:00,51.0,50.0,29.78,NW,317,0.0,-999.0,97,-99.99,,,-99.99,,2013-03-12 07:52:00,
2013-03-12 04:02:00,51.0,50.0,29.77,NW,317,0.0,-999.0,97,-99.99,,,-99.99,,2013-03-12 08:02:00,
2013-03-12 04:13:00,51.0,50.0,29.77,NW,317,0.0,-999.0,97,-99.99,,,-99.99,,2013-03-12 08:13:00,
2013-03-12 04:22:00,51.0,50.0,29.77,NW,317,0.0,-999.0,97,-99.99,,,-99.99,,2013-03-12 08:22:00,
2013-03-12 04:33:00,51.0,50.0,29.76,NW,317,0.0,-999.0,97,-99.99,,,-99.99,,2013-03-12 08:33:00,
2013-03-12 04:42:00,51.0,50.0,29.76,NW,317,0.0,-999.0,97,-99.99,,,-99.99,,2013-03-12 08:42:00,
2013-03-12 04:52:00,51.0,50.0,29.75,NW,317,0.0,-999.0,97,-99.99,,,-99.99,,2013-03-12 08:52:00,
2013-03-12 05:03:00,51.0,50.0,29.75,NW,317,0.0,-999.0,97,-99.99,,,-99.99,,2013-03-12 09:03:00,
2013-03-12 05:12:00,51.0,50.0,29.75,NW,317,0.0,-999.0,97,-99.99,,,-99.99,,2013-03-12 09:12:00,
2013-03-12 05:22:00,51.0,50.0,29.75,WNW,295,1.0,-999.0,97,-99.99,,,-99.99,,2013-03-12 09:22:00,
2013-03-12 05:32:00,51.0,50.0,29.76,NW,317,2.0,-999.0,97,-99.99,,,-99.99,,2013-03-12 09:32:00,
2013-03-12 05:42:00,51.0,50.0,29.76,NW,317,2.0,-999.0,97,-99.99,,,-99.99,,2013-03-12 09:42:00,
2013-03-12 05:52:00,51.0,50.0,29.76,NW,324,1.0,-999.0,97,-99.99,,,-99.99,,2013-03-12 09:52:00,
2013-03-12 06:02:00,51.0,50.0,29.76,NW,324,0.0,-999.0,97,-99.99,,,-99.99,,2013-03-12 10:02:00,
2013-03-12 06:12:00,51.0,50.0,29.76,NW,324,0.0,-999.0,97,-99.99,,,-99.99,,2013-03-12 10:12:00,
2013-03-12 06:22:00,52.0,51.0,29.76,NW,321,0.0,-999.0,97,-99.99,,,-99.99,,2013-03-12 10:22:00,
2013-03-12 06:32:00,51.0,50.0,29.76,NW,321,0.0,-999.0,97,-99.99,,,-99.99,,2013-03-12 10:32:00,
2013-03-12 06:42:00,51.0,50.0,29.76,NW,321,0.0,-999.0,97,-99.99,,,-99.99,,2013-03-12 10:42:00,
2013-03-12 06:53:00,51.0,50.0,29.76,NW,321,0.0,-999.0,97,-99.99,,,-99.99,,2013-03-12 10:53:00,
2013-03-12 07:02:00,51.0,50.0,29.77,NNW,340,1.0,-999.0,96,-99.99,,,-99.99,,2013-03-12 11:02:00,
2013-03-12 07:12:00,51.0,50.0,29.77,NNW,340,1.0,-999.0,96,-99.99,,,-99.99,,2013-03-12 11:12:00,
2013-03-12 07:22:00,51.0,50.0,29.78,NW,314,0.0,-999.0,95,-99.99,,,-99.99,,2013-03-12 11:22:00,
2013-03-12 07:32:00,50.0,48.0,29.78,NW,325,1.0,-999.0,92,-99.99,,,-99.99,,2013-03-12 11:32:00,
2013-03-12 07:42:00,50.0,48.0,29.78,NW,325,1.0,-999.0,92,-99.99,,,-99.99,,2013-03-12 11:42:00,
2013-03-12 07:52:00,50.0,47.0,29.78,NW,319,0.0,-999.0,91,-99.99,,,-99.99,,2013-03-12 11:52:00,
2013-03-12 08:02:00,50.0,47.0,29.78,NNW,345,0.0,-999.0,91,-99.99,,,-99.99,,2013-03-12 12:02:00,
2013-03-12 08:12:00,50.0,47.0,29.78,NNW,345,0.0,-999.0,91,-99.99,,,-99.99,,2013-03-12 12:12:00,
2013-03-12 08:22:00,49.0,46.0,29.79,SW,216,0.0,-999.0,90,-99.99,,,-99.99,,2013-03-12 12:22:00,
2013-03-12 08:32:00,48.0,45.0,29.79,WNW,288,0.0,-999.0,90,-99.99,,,-99.99,,2013-03-12 12:32:00,
2013-03-12 08:42:00,48.0,45.0,29.79,WNW,288,0.0,-999.0,90,-99.99,,,-99.99,,2013-03-12 12:42:00,
2013-03-12 08:52:00,48.0,46.0,29.79,WNW,298,0.0,-999.0,94,-99.99,,,-99.99,,2013-03-12 12:52:00,
2013-03-12 09:02:00,49.0,45.0,29.80,NW,321,1.0,-999.0,87,-99.99,,,-99.99,,2013-03-12 13:02:00,
2013-03-12 09:12:00,49.0,45.0,29.80,NW,321,1.0,-999.0,87,-99.99,,,-99.99,,2013-03-12 13:12:00,
2013-03-12 09:22:00,49.0,44.0,29.81,NW,313,1.0,-999.0,84,-99.99,,,-99.99,,2013-03-12 13:22:00,
2013-03-12 09:32:00,48.0,44.0,29.83,NNE,24,1.0,-999.0,85,-99.99,,,-99.99,,2013-03-12 13:32:00,
2013-03-12 09:42:00,48.0,44.0,29.83,NNE,24,1.0,-999.0,85,-99.99,,,-99.99,,2013-03-12 13:42:00,
2013-03-12 09:52:00,48.0,43.0,29.84,WNW,292,2.0,-999.0,83,-99.99,,,-99.99,,2013-03-12 13:52:00,
2013-03-12 10:02:00,47.0,42.0,29.84,WNW,299,1.0,-999.0,84,-99.99,,,-99.99,,2013-03-12 14:02:00,
2013-03-12 10:12:00,47.0,42.0,29.84,WNW,299,1.0,-999.0,84,-99.99,,,-99.99,,2013-03-12 14:12:00,
2013-03-12 10:22:00,47.0,42.0,29.85,West,281,1.0,-999.0,82,-99.99,,,-99.99,,2013-03-12 14:22:00,
2013-03-12 10:33:00,48.0,42.0,29.85,NNW,332,1.0,-999.0,80,-99.99,,,-99.99,,2013-03-12 14:33:00,
2013-03-12 10:42:00,48.0,42.0,29.85,NNW,332,1.0,-999.0,80,-99.99,,,-99.99,,2013-03-12 14:42:00,
2013-03-12 10:53:00,49.0,43.0,29.85,NW,315,1.0,-999.0,81,-99.99,,,-99.99,,2013-03-12 14:53:00,
2013-03-12 11:02:00,50.0,42.0,29.85,West,267,1.0,-999.0,75,-99.99,,,-99.99,,2013-03-12 15:02:00,
2013-03-12 11:13:00,50.0,42.0,29.85,West,267,1.0,-999.0,75,-99.99,,,-99.99,,2013-03-12 15:13:00,
2013-03-12 11:22:00,51.0,42.0,29.85,NNW,348,1.0,-999.0,72,-99.99,,,-99.99,,2013-03-12 15:22:00,
2013-03-12 11:32:00,52.0,43.0,29.86,North,360,2.0,-999.0,71,-99.99,,,-99.99,,2013-03-12 15:32:00,
2013-03-12 11:42:00,52.0,43.0,29.86,North,360,2.0,-999.0,71,-99.99,,,-99.99,,2013-03-12 15:42:00,
2013-03-12 11:53:00,52.0,42.0,29.86,NE,40,2.0,-999.0,68,-99.99,,,-99.99,,2013-03-12 15:53:00,
2013-03-12 12:03:00,52.0,40.0,29.86,WSW,246,2.0,-999.0,63,-99.99,,,-99.99,,2013-03-12 16:03:00,
2013-03-12 12:12:00,52.0,40.0,29.86,WSW,246,2.0,-999.0,63,-99.99,,,-99.99,,2013-03-12 16:12:00,
2013-03-12 12:23:00,53.0,41.0,29.86,NNW,327,2.0,-999.0,64,-99.99,,,-99.99,,2013-03-12 16:23:00,
2013-03-12 12:33:00,52.0,39.0,29.86,NW,311,3.0,-999.0,62,-99.99,,,-99.99,,2013-03-12 16:33:00,
2013-03-12 12:43:00,52.0,39.0,29.86,NW,311,3.0,-999.0,62,-99.99,,,-99.99,,2013-03-12 16:43:00,
2013-03-12 12:53:00,53.0,39.0,29.87,West,271,2.0,-999.0,60,-99.99,,,-99.99,,2013-03-12 16:53:00,
2013-03-12 13:03:00,53.0,39.0,29.86,NW,310,4.0,-999.0,60,-99.99,,,-99.99,,2013-03-12 17:03:00,
2013-03-12 13:13:00,53.0,39.0,29.86,NW,310,4.0,-999.0,60,-99.99,,,-99.99,,2013-03-12 17:13:00,
2013-03-12 13:23:00,55.0,41.0,29.86,West,277,2.0,-999.0,58,-99.99,,,-99.99,,2013-03-12 17:23:00,
2013-03-12 13:34:00,55.0,39.0,29.86,NNW,335,2.0,-999.0,55,-99.99,,,-99.99,,2013-03-12 17:34:00,
2013-03-12 13:43:00,55.0,39.0,29.86,NNW,335,2.0,-999.0,55,-99.99,,,-99.99,,2013-03-12 17:43:00,
2013-03-12 13:54:00,55.0,39.0,29.87,NNE,22,4.0,-999.0,55,-99.99,,,-99.99,,2013-03-12 17:54:00,
2013-03-12 14:03:00,55.0,40.0,29.87,West,267,4.0,-999.0,56,-99.99,,,-99.99,,2013-03-12 18:03:00,
2013-03-12 14:13:00,56.0,39.0,29.87,WNW,298,2.0,-999.0,53,-99.99,,,-99.99,,2013-03-12 18:13:00,
2013-03-12 14:23:00,56.0,39.0,29.87,WNW,298,2.0,-999.0,53,-99.99,,,-99.99,,2013-03-12 18:23:00,
2013-03-12 14:33:00,55.0,39.0,29.87,WNW,295,6.0,-999.0,54,-99.99,,,-99.99,,2013-03-12 18:33:00,
2013-03-12 14:42:00,55.0,39.0,29.87,WNW,295,6.0,-999.0,54,-99.99,,,-99.99,,2013-03-12 18:42:00,
2013-03-12 14:53:00,54.0,39.0,29.87,NW,321,3.0,-999.0,56,-99.99,,,-99.99,,2013-03-12 18:53:00,
2013-03-12 15:03:00,54.0,39.0,29.87,WSW,245,4.0,-999.0,56,-99.99,,,-99.99,,2013-03-12 19:03:00,
2013-03-12 15:13:00,54.0,39.0,29.87,WSW,245,4.0,-999.0,56,-99.99,,,-99.99,,2013-03-12 19:13:00,
2013-03-12 15:23:00,54.0,39.0,29.87,WNW,291,4.0,-999.0,56,-99.99,,,-99.99,,2013-03-12 19:23:00,
2013-03-12 15:33:00,55.0,37.0,29.88,West,281,4.0,-999.0,51,-99.99,,,-99.99,,2013-03-12 19:33:00,
2013-03-12 15:43:00,55.0,37.0,29.88,West,281,4.0,-999.0,51,-99.99,,,-99.99,,2013-03-12 19:43:00,
2013-03-12 15:53:00,54.0,37.0,29.88,NW,317,3.0,-999.0,53,-99.99,,,-99.99,,2013-03-12 19:53:00,
2013-03-12 16:02:00,54.0,37.0,29.88,WNW,285,4.0,-999.0,52,-99.99,,,-99.99,,2013-03-12 20:02:00,
2013-03-12 16:23:00,53.0,37.0,29.88,WSW,255,4.0,-999.0,54,-99.99,,,-99.99,,2013-03-12 20:23:00,
2013-03-12 16:33:00,52.0,35.0,29.89,WNW,284,4.0,-999.0,52,-99.99,,,-99.99,,2013-03-12 20:33:00,
2013-03-12 16:42:00,52.0,35.0,29.89,WNW,284,4.0,-999.0,52,-99.99,,,-99.99,,2013-03-12 20:42:00,
2013-03-12 16:53:00,52.0,34.0,29.89,WNW,300,3.0,-999.0,51,-99.99,,,-99.99,,2013-03-12 20:53:00,
2013-03-12 17:03:00,52.0,35.0,29.89,NNW,344,1.0,-999.0,52,-99.99,,,-99.99,,2013-03-12 21:03:00,
2013-03-12 17:13:00,52.0,35.0,29.89,NNW,344,1.0,-999.0,52,-99.99,,,-99.99,,2013-03-12 21:13:00,
2013-03-12 17:22:00,52.0,35.0,29.89,WNW,296,1.0,-999.0,53,-99.99,,,-99.99,,2013-03-12 21:22:00,
2013-03-12 17:33:00,52.0,34.0,29.89,NW,311,3.0,-999.0,50,-99.99,,,-99.99,,2013-03-12 21:33:00,
2013-03-12 17:43:00,52.0,34.0,29.89,NW,311,3.0,-999.0,50,-99.99,,,-99.99,,2013-03-12 21:43:00,
2013-03-12 17:53:00,52.0,34.0,29.89,NNW,338,3.0,-999.0,51,-99.99,,,-99.99,,2013-03-12 21:53:00,
2013-03-12 18:02:00,52.0,35.0,29.89,West,281,2.0,-999.0,52,-99.99,,,-99.99,,2013-03-12 22:02:00,
2013-03-12 18:13:00,52.0,35.0,29.89,West,281,2.0,-999.0,52,-99.99,,,-99.99,,2013-03-12 22:13:00,
2013-03-12 18:23:00,52.0,34.0,29.90,NNW,327,1.0,-999.0,51,-99.99,,,-99.99,,2013-03-12 22:23:00,
2013-03-12 18:33:00,52.0,33.0,29.91,NNW,331,1.0,-999.0,48,-99.99,,,-99.99,,2013-03-12 22:33:00,
2013-03-12 18:43:00,52.0,33.0,29.91,NNW,331,1.0,-999.0,48,-99.99,,,-99.99,,2013-03-12 22:43:00,
2013-03-12 18:53:00,52.0,32.0,29.91,NW,321,1.0,-999.0,47,-99.99,,,-99.99,,2013-03-12 22:53:00,
2013-03-12 19:02:00,51.0,33.0,29.92,NNW,334,0.0,-999.0,50,-99.99,,,-99.99,,2013-03-12 23:02:00,
2013-03-12 19:12:00,51.0,33.0,29.92,NNW,334,0.0,-999.0,50,-99.99,,,-99.99,,2013-03-12 23:12:00,
2013-03-12 19:23:00,50.0,33.0,29.92,West,281,1.0,-999.0,52,-99.99,,,-99.99,,2013-03-12 23:23:00,
2013-03-12 19:34:00,48.0,34.0,29.94,NNW,330,0.0,-999.0,58,-99.99,,,-99.99,,2013-03-12 23:34:00,
2013-03-12 19:43:00,48.0,34.0,29.94,NNW,330,0.0,-999.0,58,-99.99,,,-99.99,,2013-03-12 23:43:00,
2013-03-12 19:52:00,47.0,33.0,29.95,NW,317,0.0,-999.0,58,-99.99,,,-99.99,,2013-03-12 23:52:00,
2013-03-12 20:03:00,47.0,34.0,29.96,NW,317,0.0,-999.0,61,-99.99,,,-99.99,,2013-03-13 00:03:00,
2013-03-12 20:13:00,47.0,34.0,29.96,NW,317,0.0,-999.0,61,-99.99,,,-99.99,,2013-03-13 00:13:00,
2013-03-12 20:23:00,46.0,33.0,29.96,NW,305,0.0,-999.0,61,-99.99,,,-99.99,,2013-03-13 00:23:00,
2013-03-12 20:33:00,45.0,33.0,29.97,West,263,0.0,-999.0,63,-99.99,,,-99.99,,2013-03-13 00:33:00,
2013-03-12 20:42:00,45.0,33.0,29.97,West,263,0.0,-999.0,63,-99.99,,,-99.99,,2013-03-13 00:42:00,
2013-03-12 20:53:00,45.0,34.0,29.97,WSW,244,1.0,-999.0,64,-99.99,,,-99.99,,2013-03-13 00:53:00,
2013-03-12 21:03:00,45.0,34.0,29.97,West,279,0.0,-999.0,64,-99.99,,,-99.99,,2013-03-13 01:03:00,
2013-03-12 21:13:00,45.0,34.0,29.97,West,279,0.0,-999.0,64,-99.99,,,-99.99,,2013-03-13 01:13:00,
2013-03-12 21:22:00,44.0,33.0,29.98,WNW,289,0.0,-999.0,65,-99.99,,,-99.99,,2013-03-13 01:22:00,
2013-03-12 21:32:00,44.0,33.0,29.98,West,261,0.0,-999.0,66,-99.99,,,-99.99,,2013-03-13 01:32:00,
2013-03-12 21:43:00,44.0,33.0,29.98,West,261,0.0,-999.0,66,-99.99,,,-99.99,,2013-03-13 01:43:00,
2013-03-12 21:53:00,44.0,33.0,29.98,WNW,288,1.0,-999.0,66,-99.99,,,-99.99,,2013-03-13 01:53:00,
2013-03-12 22:03:00,44.0,33.0,29.98,NW,326,0.0,-999.0,66,-99.99,,,-99.99,,2013-03-13 02:03:00,
2013-03-12 22:12:00,44.0,33.0,29.98,NW,326,0.0,-999.0,66,-99.99,,,-99.99,,2013-03-13 02:12:00,
2013-03-12 22:22:00,43.0,33.0,29.98,NW,320,0.0,-999.0,68,-99.99,,,-99.99,,2013-03-13 02:22:00,
2013-03-12 22:32:00,43.0,32.0,29.98,NW,307,0.0,-999.0,66,-99.99,,,-99.99,,2013-03-13 02:32:00,
2013-03-12 22:43:00,43.0,32.0,29.98,NW,307,0.0,-999.0,66,-99.99,,,-99.99,,2013-03-13 02:43:00,
2013-03-12 22:53:00,42.0,33.0,29.98,NW,307,0.0,-999.0,69,-99.99,,,-99.99,,2013-03-13 02:53:00,
2013-03-12 23:02:00,42.0,33.0,29.98,NNW,329,0.0,-999.0,70,-99.99,,,-99.99,,2013-03-13 03:02:00,
2013-03-12 23:13:00,42.0,33.0,29.98,NNW,329,0.0,-999.0,70,-99.99,,,-99.99,,2013-03-13 03:13:00,
2013-03-12 23:22:00,42.0,32.0,29.99,WNW,293,0.0,-999.0,68,-99.99,,,-99.99,,2013-03-13 03:22:00,
2013-03-12 23:32:00,42.0,31.0,29.99,NW,321,1.0,-999.0,66,-99.99,,,-99.99,,2013-03-13 03:32:00,
2013-03-12 23:42:00,42.0,31.0,29.99,NW,321,1.0,-999.0,66,-99.99,,,-99.99,,2013-03-13 03:42:00,
2013-03-12 23:53:00,42.0,31.0,29.99,NW,315,1.0,-999.0,64,-99.99,,,-99.99,,2013-03-13 03:53:00,